TimeEDT,TemperatureF,Dew PointF,Humidity,Sea Level PressureIn,VisibilityMPH,Wind Direction,Wind SpeedMPH,Gust SpeedMPH,PrecipitationIn,Events,Conditions,WindDirDegrees,DateUTC
12:05 AM,53.6,53.6,100,29.63,1.8,NNE,5.8,-,0.13,Rain,Heavy Rain,30,2013-10-18 04:05:00
12:13 AM,53.6,53.6,100,29.63,2.0,North,5.8,-,0.20,Rain,Heavy Rain,350,2013-10-18 04:13:00
12:37 AM,53.6,53.6,100,29.62,4.0,North,5.8,-,0.33,Rain,Rain,350,2013-10-18 04:37:00
12:53 AM,54.0,53.1,97,29.62,6.0,NNW,6.9,-,0.36,Rain,Light Rain,330,2013-10-18 04:53:00
1:00 AM,53.6,53.6,100,29.62,5.0,NW,10.4,-,0.03,Rain,Rain,310,2013-10-18 05:00:00
1:53 AM,54.0,52.0,93,29.62,10.0,NNW,5.8,-,0.12,Rain,Light Rain,330,2013-10-18 05:53:00
2:53 AM,55.0,52.0,89,29.63,10.0,NW,8.1,-,0.00,,Overcast,320,2013-10-18 06:53:00
3:23 AM,53.6,51.8,94,29.64,10.0,North,4.6,-,N/A,,Mostly Cloudy,360,2013-10-18 07:23:00
3:53 AM,51.1,48.9,92,29.65,9.0,Calm,Calm,-,N/A,,Partly Cloudy,0,2013-10-18 07:53:00
4:53 AM,53.1,52.0,96,29.69,10.0,SSW,5.8,-,N/A,,Overcast,210,2013-10-18 08:53:00
5:53 AM,53.1,52.0,96,29.70,10.0,Calm,Calm,-,0.00,,Overcast,0,2013-10-18 09:53:00
6:53 AM,52.0,48.9,89,29.71,10.0,SW,3.5,-,N/A,,Scattered Clouds,220,2013-10-18 10:53:00
7:53 AM,54.0,48.0,80,29.73,10.0,WSW,6.9,-,N/A,,Clear,240,2013-10-18 11:53:00
8:53 AM,55.9,45.0,67,29.76,10.0,WSW,11.5,19.6,N/A,,Clear,250,2013-10-18 12:53:00
9:53 AM,57.9,45.0,62,29.76,10.0,WSW,8.1,18.4,N/A,,Clear,250,2013-10-18 13:53:00
10:53 AM,60.1,46.0,60,29.78,10.0,West,11.5,23.0,N/A,,Clear,270,2013-10-18 14:53:00
11:53 AM,61.0,45.0,56,29.80,10.0,West,13.8,23.0,N/A,,Scattered Clouds,260,2013-10-18 15:53:00
12:53 PM,57.9,45.0,62,29.81,10.0,West,11.5,19.6,N/A,,Overcast,270,2013-10-18 16:53:00
1:53 PM,57.9,45.0,62,29.81,10.0,WSW,8.1,-,N/A,,Overcast,250,2013-10-18 17:53:00
2:53 PM,59.0,45.0,60,29.81,10.0,WSW,9.2,17.3,N/A,,Overcast,250,2013-10-18 18:53:00
3:53 PM,61.0,44.1,54,29.82,10.0,WNW,8.1,-,N/A,,Mostly Cloudy,290,2013-10-18 19:53:00
4:53 PM,61.0,36.0,39,29.82,10.0,WSW,6.9,17.3,N/A,,Clear,240,2013-10-18 20:53:00
5:53 PM,57.9,35.1,42,29.84,10.0,WSW,11.5,19.6,N/A,,Clear,240,2013-10-18 21:53:00
6:53 PM,55.0,36.0,49,29.88,10.0,WSW,5.8,-,N/A,,Clear,250,2013-10-18 22:53:00
7:53 PM,53.1,35.1,50,29.89,10.0,SW,4.6,-,N/A,,Clear,230,2013-10-18 23:53:00
8:53 PM,48.0,37.0,66,29.91,10.0,SW,6.9,-,N/A,,Clear,220,2013-10-19 00:53:00
9:53 PM,48.0,37.9,68,29.93,10.0,SSW,4.6,-,N/A,,Clear,210,2013-10-19 01:53:00
10:53 PM,45.0,37.9,76,29.93,10.0,Calm,Calm,-,N/A,,Clear,0,2013-10-19 02:53:00
11:53 PM,43.0,37.0,80,29.94,10.0,Calm,Calm,-,N/A,,Clear,0,2013-10-19 03:53:00